SCP
0 0 0 0 0 0 0 0 0 0 0 0 0 0 0 0 1 1 1 1 1 1 1 1 1 1 1 1 1 1 1 1 1 1 1 1 1 1 1 1 1 1 1 1
0 0 0 0 0 0 0 0 0 0 0 0 0 0 0 0 1 1 1 1 1 1 1 1 1 1 1 1 1 1 1 1 1 1 1 1 1 1 1 1 1 1 1 1
0 0 0 0 0 0 0 0 0 0 0 0 0 1 1 1 1 1 1 1 1 1 1 1 1 1 1 1 1 1 1 1 1 1 1 1 1 1 1 1 1 1 1 1
0 0 0 0 0 0 0 0 0 0 0 0 0 1 1 1 1 1 1 2 1 1 1 1 1 1 1 1 1 1 1 1 1 1 1 1 1 1 1 1 1 1 1 1
0 0 0 0 0 0 0 0 0 0 0 1 1 1 1 1 1 1 2 2 1 1 1 1 1 1 1 1 1 1 1 1 1 1 1 1 1 1 1 1 1 1 1 1
0 0 0 0 0 0 0 0 0 1 1 1 1 1 1 1 1 2 2 2 1 1 1 1 1 1 1 1 1 1 1 1 1 1 1 1 1 1 1 1 1 1 1 1
0 0 0 0 0 0 0 0 0 1 1 1 1 1 1 1 1 2 2 1 1 1 1 1 1 1 1 1 1 1 1 1 1 1 1 1 1 1 1 1 1 1 1 1
0 0 0 0 0 0 0 0 0 1 1 1 1 1 1 1 1 1 1 1 1 1 1 1 1 1 1 1 1 1 1 1 1 1 1 1 1 1 1 1 1 1 1 1
0 0 0 0 0 0 0 0 0 1 1 1 1 1 1 1 1 1 1 1 1 1 1 1 1 1 1 1 1 1 1 1 1 1 1 1 1 1 1 1 1 1 1 1
0 0 0 0 0 0 0 0 0 0 1 1 1 1 1 1 1 1 1 1 1 1 1 1 1 1 1 1 1 1 1 1 1 1 1 1 1 1 1 1 1 1 1 1
0 0 0 0 0 0 0 0 0 0 1 1 1 1 1 1 1 1 1 1 1 1 1 1 1 1 1 1 1 1 1 1 0 0 0 1 1 1 1 1 1 1 1 1
1 1 1 1 1 0 0 0 0 0 0 0 0 0 1 1 1 1 1 1 1 1 1 1 1 1 1 1 1 1 1 0 0 0 0 0 0 0 0 0 0 0 0 0
1 1 1 1 0 0 0 0 0 0 0 0 0 0 0 0 1 1 1 1 1 0 0 1 1 1 1 1 1 1 0 0 0 0 0 0 0 0 0 0 0 0 0 0
1 1 1 0 0 0 0 0 0 0 0 0 0 0 0 0 0 0 0 0 0 0 0 0 0 0 1 1 1 1 0 0 0 0 0 0 0 0 0 0 0 0 0 0
0 0 0 0 0 0 0 0 0 0 0 0 0 0 0 0 0 0 0 0 0 0 0 0 0 0 1 0 0 0 0 0 0 0 0 0 0 0 0 0 0 0 0 0
0 0 0 0 0 0 0 0 0 0 0 0 0 0 0 0 0 0 0 0 0 0 0 0 1 1 1 0 0 0 0 0 0 0 0 0 0 0 0 0 0 0 0 0
0 0 0 0 0 0 0 0 0 0 0 0 0 0 0 0 0 0 0 0 0 0 0 0 1 1 1 0 0 0 0 0 0 0 0 0 0 0 0 0 0 0 0 0
0 0 0 0 0 0 0 0 0 0 0 0 0 0 0 0 0 0 0 0 0 0 0 0 0 0 0 0 0 0 0 0 0 0 0 0 0 0 0 0 0 0 0 0
0 0 0 0 0 0 0 0 0 0 0 0 0 0 0 0 0 0 0 0 0 0 0 0 0 0 0 0 0 0 0 0 0 0 0 0 0 0 0 0 0 0 0 0
0 0 0 0 0 0 0 0 0 0 0 0 0 0 0 1 1 1 1 1 0 0 0 0 0 0 0 0 0 0 0 0 0 0 0 0 0 0 0 0 0 0 0 0
0 0 0 0 0 0 0 0 0 0 0 0 0 0 0 0 1 1 1 1 1 1 0 0 0 0 0 0 0 0 0 0 0 0 0 0 0 0 0 0 0 0 0 0
0 0 0 0 0 0 0 0 0 0 0 0 0 0 0 0 0 0 1 1 1 0 0 0 0 0 0 0 0 0 0 0 0 0 0 0 0 0 0 0 0 0 0 0
0 0 0 0 0 0 0 0 0 0 0 0 0 0 0 0 0 0 0 0 0 0 0 0 0 0 0 0 0 0 0 0 0 0 0 0 0 0 0 0 0 0 0 0
0 0 0 0 0 0 0 0 0 0 0 0 0 0 0 0 0 0 0 0 0 0 0 0 0 0 0 0 0 0 0 0 0 0 0 0 0 0 0 0 0 0 0 0
0 0 0 0 0 0 0 0 0 0 0 0 0 0 0 0 0 0 0 0 0 0 0 0 0 0 0 0 0 0 0 0 0 0 0 0 0 0 0 0 0 0 0 0
0 0 0 0 0 0 0 0 0 0 0 0 0 0 0 0 0 0 0 0 0 0 0 0 0 0 0 0 0 0 0 0 0 0 0 0 0 0 0 0 0 0 0 0
0 0 0 0 0 0 0 0 0 0 0 0 0 0 0 0 0 0 0 0 0 0 0 0 0 0 0 0 0 0 0 0 0 0 0 0 0 0 0 0 0 0 0 0
Wind_Speed
13 12 10 10 10 11 10 10 9 4 4 6 6 5 6 6 6 8 7 6 6 5 4 4 3 3 2 1 1 2 2 2 2 2 2 2 1 1 1 1 1 0 0 1
13 14 13 13 12 12 11 9 8 4 2 3 5 6 7 7 6 6 6 5 5 4 4 3 3 2 1 0 1 1 2 2 2 2 2 2 2 1 1 1 1 0 0 0
12 12 14 14 9 9 8 8 6 4 1 3 4 4 4 6 5 6 5 5 3 3 3 3 3 3 2 1 1 1 1 1 1 1 1 1 2 1 1 1 1 1 1 0
11 11 14 7 5 6 6 4 2 1 4 4 5 5 5 4 5 5 5 4 3 2 2 3 3 3 2 1 1 1 1 1 1 1 1 1 1 1 1 1 1 1 1 1
9 11 11 8 3 4 4 2 2 2 2 3 6 6 6 5 5 4 5 4 3 2 2 1 1 1 1 1 1 1 1 1 0 1 1 1 1 1 1 1 1 1 1 1
8 10 9 3 3 5 5 3 3 3 1 2 4 2 3 5 5 6 5 4 3 2 3 2 2 1 1 1 1 1 0 0 0 1 1 1 1 1 1 1 2 2 1 1
10 10 6 2 2 4 5 2 5 4 3 3 2 3 4 4 5 5 4 4 4 3 3 3 2 2 1 1 2 2 1 1 1 1 1 1 1 1 1 1 2 2 2 2
8 9 3 5 2 2 3 4 4 4 3 3 5 5 5 5 5 4 4 4 4 4 3 3 3 2 1 1 1 1 1 1 1 1 2 1 1 1 1 2 2 2 2 3
2 0 3 4 4 4 3 4 3 3 2 4 4 3 4 4 4 3 3 3 3 3 3 3 3 2 2 2 2 1 1 1 1 2 1 0 1 1 2 1 2 2 2 3
1 2 2 2 4 4 4 3 2 2 2 3 3 3 3 3 2 2 1 1 1 1 1 2 2 3 3 2 2 1 1 1 1 2 1 0 1 1 2 2 2 2 2 2
2 0 0 1 3 3 3 2 2 2 2 2 2 2 1 1 1 1 1 1 1 1 0 1 2 2 3 2 1 2 2 1 2 2 1 1 2 2 2 1 2 2 2 2
2 1 1 2 3 3 2 2 2 2 2 1 1 0 1 1 1 1 0 1 1 1 1 2 2 2 2 2 2 2 2 2 2 2 2 2 2 1 1 1 1 1 1 2
2 2 2 2 3 3 2 2 2 2 1 2 1 1 1 1 1 1 1 1 1 1 1 1 2 2 2 2 2 2 2 2 3 3 2 3 2 2 2 1 2 3 4 4
4 4 2 2 2 3 3 3 3 2 1 1 1 1 1 1 1 1 1 2 1 1 1 1 2 2 2 2 2 2 3 3 3 3 3 3 3 3 3 3 2 2 4 6
1 1 1 2 2 2 2 2 2 1 1 2 1 1 1 1 1 1 1 2 1 1 1 2 2 2 2 2 2 3 3 3 3 4 4 4 4 4 4 3 3 3 2 2
1 1 1 2 2 2 2 2 2 2 2 2 2 2 2 2 1 1 2 2 1 2 1 2 2 2 2 3 3 3 3 4 5 4 4 4 4 4 4 3 3 2 2 1
1 1 0 1 1 1 2 2 2 2 2 2 2 2 2 2 2 2 2 2 1 1 1 2 2 2 3 3 4 4 4 4 6 5 5 4 4 4 4 4 4 3 2 2
1 0 0 1 1 2 2 2 2 2 2 2 2 1 1 1 1 2 2 2 2 1 2 2 2 3 3 4 4 4 5 4 4 4 4 3 4 4 4 4 4 4 3 2
1 1 1 1 0 0 1 2 2 2 2 2 2 2 2 2 2 2 2 2 2 2 2 3 4 4 4 4 5 4 5 5 4 3 3 3 4 4 4 3 3 3 3 2
2 2 1 1 1 2 1 2 2 3 2 2 2 2 2 2 2 2 2 2 2 2 3 3 3 4 4 4 6 5 5 5 4 3 3 3 3 3 3 4 3 3 3 2
2 2 2 2 2 2 3 3 3 3 3 2 2 2 2 3 3 3 3 3 2 3 4 3 3 3 4 5 6 5 4 4 3 3 3 2 2 3 3 3 3 3 3 2
1 2 2 2 2 3 3 3 2 2 2 2 3 3 2 3 2 2 3 2 2 4 4 3 3 4 6 7 5 4 4 4 3 3 2 2 2 2 3 2 2 2 2 2
1 2 2 2 2 2 2 2 2 2 2 2 2 3 3 3 3 3 2 2 2 3 3 3 5 6 7 5 4 3 4 4 3 3 2 1 1 1 2 2 2 2 2 2
1 1 1 1 1 1 1 1 1 1 1 1 1 1 2 2 2 2 1 2 3 3 2 2 4 5 5 4 3 3 3 4 3 3 3 2 1 1 1 2 2 2 1 2
1 1 1 1 1 1 1 0 0 1 1 1 1 1 1 1 2 2 2 2 2 2 2 1 2 4 3 3 4 4 3 3 3 3 3 2 2 1 1 1 2 2 2 2
1 1 1 1 1 1 1 1 1 1 1 1 1 1 1 1 1 1 1 1 2 2 2 2 1 2 2 3 4 4 4 3 3 3 3 3 3 2 2 2 2 2 2 2
2 2 2 2 1 1 1 0 0 1 1 2 2 2 2 2 2 2 2 2 1 2 2 2 2 2 3 3 3 3 3 3 3 3 3 3 3 3 3 3 2 2 2 3
Wind_Direction
270 270 261 255 248 243 247 260 269 257 184 162 153 131 127 136 133 125 127 121 116 116 112 112 101 91 89 86 99 125 152 185 161 188 176 179 184 178 169 197 204 148 348 345
266 264 266 261 248 245 243 248 249 235 237 127 108 125 141 140 137 133 131 126 123 122 122 122 122 120 112 125 96 121 172 175 155 169 170 183 191 181 184 191 193 144 142 16
265 262 262 256 254 251 252 255 264 243 186 126 121 132 130 132 142 141 134 128 122 126 137 143 148 144 149 148 144 161 161 140 140 156 165 186 209 185 193 195 191 225 247 151
263 265 257 257 274 279 268 270 299 102 121 132 149 135 117 123 134 130 129 126 120 123 129 151 154 145 150 174 169 162 128 139 170 194 196 187 206 195 191 194 205 223 210 194
254 257 255 251 263 297 281 292 8 32 110 144 127 128 114 98 96 108 109 109 113 117 110 83 95 104 148 197 197 184 157 166 256 260 230 184 211 226 223 210 219 222 212 208
252 261 263 269 338 333 291 242 28 31 22 124 124 171 95 77 77 85 84 84 80 70 68 64 61 61 348 319 308 291 305 7 295 285 294 272 236 232 237 232 227 220 213 223
246 256 263 347 343 307 270 13 20 28 49 61 78 65 98 91 78 73 70 74 67 58 53 49 47 52 2 327 320 335 335 316 287 273 267 254 232 229 226 251 246 231 224 227
248 250 243 16 22 39 47 27 19 17 29 58 81 91 102 97 86 79 68 67 63 58 45 36 33 31 357 333 326 345 352 344 337 315 280 257 224 255 249 251 256 252 249 250
275 344 77 62 64 63 59 52 18 357 61 93 101 103 101 101 97 86 74 63 63 64 42 24 21 4 332 339 349 358 20 14 340 311 298 306 241 246 257 237 244 259 259 262
245 127 77 54 60 51 42 40 30 42 75 97 95 99 106 106 105 105 109 107 94 82 43 8 355 345 340 344 346 348 348 327 281 282 283 305 278 256 251 251 240 245 254 267
262 239 149 54 45 42 37 34 48 48 75 90 94 101 91 95 115 116 82 83 96 98 38 336 343 337 334 342 343 324 313 296 285 280 281 259 260 275 259 262 237 247 272 274
260 350 342 30 47 45 39 43 41 41 53 60 73 82 75 66 55 36 46 36 20 8 336 333 336 335 339 337 326 305 294 301 298 286 285 276 258 270 14 220 170 180 225 260
26 39 32 14 24 31 30 38 37 38 26 352 350 40 76 85 76 24 23 25 8 345 330 332 337 339 344 331 328 325 310 306 305 303 299 290 282 260 251 226 211 224 227 229
44 49 23 1 12 30 37 39 37 34 18 349 3 56 76 56 40 25 357 340 340 335 331 329 330 329 330 327 333 322 306 298 294 287 283 277 278 269 262 249 239 244 234 224
40 22 12 27 21 36 35 34 21 13 17 5 8 12 27 16 -0 350 343 331 326 309 316 320 322 329 328 315 312 299 290 286 287 291 286 283 283 278 275 271 259 250 230 210
336 349 19 24 354 17 31 21 13 16 19 6 359 11 8 350 347 345 331 330 325 314 326 322 313 316 308 294 287 277 264 269 272 275 277 276 276 278 277 279 275 268 251 219
261 285 305 328 336 2 13 7 2 357 2 6 16 21 8 3 358 348 328 318 319 300 295 302 307 308 296 294 290 284 273 260 259 266 268 271 276 279 278 274 274 274 271 210
213 167 73 60 344 334 354 349 353 2 5 9 9 5 344 334 322 324 323 325 328 313 302 299 305 294 286 291 288 284 284 273 266 269 270 276 280 278 282 286 285 280 279 232
106 98 107 115 199 324 349 324 329 19 23 12 10 355 343 336 328 312 312 313 306 302 314 315 301 290 292 296 290 276 278 278 272 271 273 270 271 281 282 278 278 280 285 286
112 92 73 58 48 50 43 25 33 38 36 19 4 1 351 334 322 311 303 300 315 327 323 320 306 298 298 309 305 288 283 281 280 275 274 277 281 288 293 293 293 297 302 308
104 107 92 63 46 43 47 43 41 37 27 18 9 360 343 333 331 323 308 310 348 342 318 303 300 309 311 311 290 282 291 293 288 283 284 288 290 290 292 299 299 302 307 317
57 71 71 62 54 48 45 42 42 35 24 8 356 352 339 331 326 328 336 335 336 345 323 322 336 339 329 312 293 293 293 289 289 289 293 299 300 304 305 313 313 319 329 347
37 49 57 63 63 46 36 25 21 16 7 359 357 351 339 331 329 332 337 337 334 352 334 350 353 348 330 308 304 310 311 305 295 287 281 270 268 290 313 321 327 331 341 351
106 81 87 94 100 73 360 328 345 8 347 314 317 310 306 313 325 341 334 347 5 357 339 3 355 341 321 309 312 311 307 301 296 291 284 280 279 272 310 329 334 328 333 351
140 151 170 177 179 189 170 270 300 306 291 301 318 306 304 329 323 327 337 2 15 332 323 335 313 315 308 319 321 319 320 326 327 320 316 325 316 312 332 340 331 320 322 352
173 192 178 196 210 240 228 221 240 288 305 321 339 354 6 4 329 319 323 335 348 336 329 340 326 299 307 322 330 328 326 332 336 334 342 345 339 344 4 7 358 355 360 12
186 181 192 197 184 214 236 217 258 310 332 351 348 3 9 357 355 355 348 341 343 339 345 343 333 327 331 340 347 343 338 347 352 354 353 357 1 3 9 27 19 12 10 11